Volver al catálogo

COSMOS 2251 DEB

ActivoLEO
NORAD 40803·DEBRIS·🇷🇺 Russia

Lanzado Jun 16, 1993 desde Plesetsk Cosmodrome

Loading…

Próximos Pases (próximas 24 horas)

TLE

ObsoletoSource: Space-Track

Época: Sep 4, 2026, 11:49 UTC

1 40803U 93036BWG 26247.49260563  .00000397  00000-0  10384-3 0  9990
2 40803  74.0112 270.4477 0031210  59.0968 301.3255 14.52374042626103

Sigue COSMOS 2251 DEB en tiempo real con AllMySat

Download on the App Store